{"data":{"norad_id":55611,"epoch":"2026-09-20T22:09:48.689280Z","epoch_age_seconds":63804,"freshness":"FRESH","line1":"1 55611U 23020AU  26263.92348020  .00000005  00000+0  97012-5 0  9990","line2":"2 55611  43.0047 331.9981 0001683 268.5979  91.4680 15.27574728198897","mean_motion":15.27574728,"eccentricity":0.0001683,"inclination_deg":43.0047,"raan_deg":331.9981,"arg_perigee_deg":268.5979,"mean_anomaly_deg":91.468,"bstar":9.7012e-6,"rev_number":19889,"period_min":94.267074049159,"perigee_km":481.91014207285,"apogee_km":484.21962262645,"semimajor_km":6861.2018823496,"source":"CELESTRAK","updated_at":"2026-09-21T09:00:33.274568Z"}}